FW2446 Weather Reports


time (UTC)temp
C
wind
direction
speed
KPH
gust
KPH
rain 1hr
cm
rain 24hr
cm
rain mn
cm
humidity
%
barometer
mb
20260505181530 21 296 6.4 16.1 0.00 0.00 0.00 55 1015.1
20260505180030 21 295 6.4 14.5 0.00 0.00 0.00 57 1015.0
20260505174646 20 306 4.8 12.9 0.00 0.00 0.00 59 1015.1
20260505171531 20 316 4.8 12.9 0.00 0.00 0.00 61 1015.0
20260505170029 19 310 4.8 17.7 0.00 0.00 0.00 62 1015.0
20260505164531 18 308 4.8 14.5 0.00 0.00 0.00 62 1014.9
20260505163029 18 318 4.8 12.9 0.00 0.00 0.00 63 1015.0
20260505153031 17 141 1.6 6.4 0.00 0.00 0.00 67 1014.8
20260505151530 16 153 1.6 6.4 0.00 0.00 0.00 69 1014.7
20260505124607 12 303 0.0 6.4 0.00 0.00 0.00 78 1013.2
20260505123032 13 337 0.0 1.6 0.00 0.00 0.00 75 1013.2
20260505121532 13 293 0.0 8.0 0.00 0.00 0.00 73 1013.0
20260505120030 15 299 1.6 9.7 0.00 0.00 0.00 73 1012.9
20260505114533 14 294 3.2 14.5 0.00 0.00 0.00 73 1012.9
20260505113107 14 306 3.2 11.3 0.00 0.00 0.00 74 1012.8
20260505111533 14 300 1.6 8.0 0.00 0.00 0.00 74 1012.6
20260505101532 15 301 3.2 11.3 0.00 0.00 0.00 71 1012.2
20260505100037 15 307 0.0 8.0 0.00 0.00 0.00 71 1012.2
20260505094606 16 296 3.2 9.7 0.00 0.00 0.00 70 1012.1
20260505093031 16 293 3.2 8.0 0.00 0.00 0.00 70 1012.0
20260505091530 16 305 1.6 9.7 0.00 0.00 0.00 69 1011.9
20260505090107 16 292 1.6 11.3 0.00 0.00 0.00 69 1011.9
20260505083030 16 287 1.6 6.4 0.00 0.00 0.00 68 1011.9
20260505081532 16 320 0.0 6.4 0.00 0.00 0.00 67 1011.9
20260505080028 17 287 0.0 6.4 0.00 0.00 0.00 65 1011.9
20260505074531 17 297 1.6 9.7 0.00 0.00 0.00 65 1011.7
20260505073031 17 298 3.2 12.9 0.00 0.00 0.00 64 1011.5
20260505071532 17 298 3.2 11.3 0.00 0.00 0.00 63 1011.5
20260505070032 18 289 3.2 9.7 0.00 0.00 0.00 62 1011.5
20260505064646 18 285 3.2 12.9 0.00 0.00 0.00 61 1011.3
20260505063030 18 297 4.8 14.5 0.00 0.00 0.00 60 1011.2
20260505061533 18 295 6.4 19.3 0.00 0.00 0.00 59 1011.1
20260505060031 19 297 6.4 12.9 0.00 0.00 0.00 57 1011.0
20260505051532 20 294 6.4 19.3 0.00 0.00 0.00 52 1010.8
20260505041530 21 282 9.7 24.1 0.00 0.00 0.00 48 1010.1
20260505040046 21 279 8.0 22.5 0.00 0.00 0.00 48 1009.9
20260505034528 21 287 8.0 16.1 0.00 0.00 0.00 48 1009.8
20260505033030 21 280 6.4 19.3 0.00 0.00 0.00 48 1009.5
20260505031529 21 289 6.4 20.9 0.00 0.00 0.00 47 1009.4
20260505030105 22 290 8.0 22.5 0.00 0.00 0.00 46 1009.3
20260505024605 22 287 6.4 17.7 0.00 0.00 0.00 45 1009.2
20260505023031 23 281 4.8 17.7 0.00 0.00 0.00 43 1009.1
20260505020145 24 286 8.0 17.7 0.00 0.00 0.00 41 1009.2
20260505014532 24 284 4.8 14.5 0.00 0.00 0.00 41 1009.1
20260505013030 25 292 6.4 16.1 0.00 0.00 0.00 40 1009.1
20260505011532 25 290 6.4 11.3 0.00 0.00 0.00 39 1009.1
20260505010033 25 294 8.0 19.3 0.00 0.00 0.00 40 1009.0
20260505004607 25 294 6.4 22.5 0.00 0.00 0.00 42 1009.0
20260505003032 25 296 8.0 19.3 0.00 0.00 0.00 42 1009.1
20260505001529 26 304 6.4 16.1 0.00 0.00 0.00 41 1009.2
20260505000030 26 297 8.0 16.1 0.00 0.00 0.00 42 1009.2
20260504234531 26 299 6.4 16.1 0.00 0.00 0.00 42 1009.1
20260504233031 26 299 6.4 17.7 0.00 0.00 0.00 42 1009.2
20260504231529 27 295 6.4 22.5 0.00 0.00 0.00 42 1009.3
20260504230031 27 302 4.8 8.0 0.00 0.00 0.00 42 1009.5
20260504224531 27 307 4.8 17.7 0.00 0.00 0.00 43 1009.7
20260504221530 27 309 4.8 14.5 0.00 0.00 0.00 44 1009.9
20260504220031 26 312 4.8 20.9 0.00 0.00 0.00 47 1010.0
20260504214530 26 313 4.8 12.9 0.00 0.00 0.00 47 1010.3
20260504213031 26 312 4.8 12.9 0.00 0.00 0.00 48 1010.4
20260504211531 27 315 3.2 11.3 0.00 0.00 0.00 46 1010.5
20260504210030 27 318 3.2 9.7 0.00 0.00 0.00 43 1010.7
20260504204645 27 319 1.6 8.0 0.00 0.00 0.00 43 1010.8
20260504203031 27 322 1.6 6.4 0.00 0.00 0.00 44 1011.0
20260504201529 27 315 3.2 9.7 0.00 0.00 0.00 44 1011.1
20260504200032 26 312 4.8 11.3 0.00 0.00 0.00 45 1011.2
20260504194605 26 308 4.8 12.9 0.00 0.00 0.00 46 1011.2
20260504193030 25 308 4.8 12.9 0.00 0.00 0.00 47 1011.3
20260504191529 25 315 4.8 12.9 0.00 0.00 0.00 48 1011.4
20260504190033 25 309 4.8 12.9 0.00 0.00 0.00 48 1011.4
20260504184531 24 314 6.4 14.5 0.00 0.00 0.00 49 1011.5
20260504183107 23 305 6.4 20.9 0.00 0.00 0.00 48 1011.4